Find Local Weather

World > North America > United States > New Jersey

Aberdeen, New Jersey Regional Weather

Lat: 40.41N, Lon: 74.23W
Wx Zone: NJZ013
Feedback

Aberdeen, NJ Regional Weather

Expires:201905251000;;428368
ASUS41 KOKX 250913
RWROKX

Regional Weather Roundup
National Weather Service New York NY
500 AM EDT SAT MAY 25 2019

Note: "FAIR" indicates few or no clouds below 12,000 feet with no
significant weather and/or obstructions to visibility.


NJZ001-105-106-008-010-013-015-019>022-104-251000-
New Jersey
  
CITY           SKY/WX    TMP DP  RH WIND       PRES   REMARKS
Newark/Liberty FAIR      58  51  78 SE7       30.17R                  
Teterboro      FAIR      56  50  80 CALM      30.16R                  
Caldwell       FAIR      55  51  86 CALM      30.18R                  
Somerville     FAIR      50  48  93 CALM      30.16R                  
Linden         FAIR      57  50  77 S5        30.18R                  
Perth Amboy      N/A     57 N/A N/A SE8         N/A                   
Sussex         LGT RAIN  46  45  96 CALM      30.18R                  
Andover          N/A     48  46  93 CALM      30.17R                  
Trenton        FAIR      53  48  83 SE3       30.17R                  
Millville      FAIR      55  52  89 SE5       30.16R                  
Atlantic City  FAIR      57  52  83 SE9       30.17R                  
Wrightstown    FAIR      53  50  88 CALM      30.15                   
Toms River     FAIR      48  46  93 CALM      30.18R                  
Belmar         FAIR      54  50  86 SE5       30.18R                  
$$
 

SKY/WX - Weather  TMP - Temperature  DP - Dew Point  RH - Relative Humidity
WIND - Wind Direction/Speed PRES - Barometric Pressure VSB - Visibility
WCI - Wind Chill Index E13G22 Wind - East Wind 13 mph/Gusts of 22 mph